G7TKI-13 Weather Reports


time (UTC)temp
F
wind
direction
speed
knots
gust
knots
rain 1hr
in
rain 24hr
in
rain mn
in
humidity
%
barometer
mb
20260508020029 37 0.0 0.0 0.00 0.00 0.00 96 1020.2
20260508015021 38 0.0 0.0 0.00 0.00 0.00 96 1020.0
20260508014019 37 0.0 0.0 0.00 0.00 0.00 96 1020.0
20260508012501 36 0.0 0.0 0.00 0.00 0.00 96 1019.8
20260508011442 36 0.0 0.0 0.00 0.00 0.00 96 1020.1
20260508010441 36 0.0 0.0 0.00 0.00 0.00 96 1020.1
20260508005438 37 0.0 0.0 0.00 0.00 0.00 95 1020.2
20260508004436 37 0.0 0.0 0.00 0.00 0.00 95 1020.1
20260508003454 38 0.0 0.0 0.00 0.00 0.00 95 1020.2
20260508002431 38 0.0 0.0 0.00 0.00 0.00 95 1020.2
20260508001421 38 0.0 0.0 0.00 0.00 0.00 95 1020.4
20260508000413 38 0.0 0.0 0.00 0.00 0.00 95 1020.3
20260507235406 38 0.0 0.0 0.00 0.00 0.00 95 1020.4
20260507234356 39 0.0 0.0 0.00 0.00 0.00 95 1020.5
20260507233340 39 0.0 0.0 0.00 0.00 0.00 95 1020.4
20260507232338 40 0.0 0.0 0.00 0.00 0.00 94 1020.8
20260507231336 41 0.0 0.0 0.00 0.00 0.00 94 1020.7
20260507230402 41 0.0 0.0 0.00 0.00 0.00 94 1020.5
20260507225333 40 0.0 0.0 0.00 0.00 0.00 94 1020.6
20260507224316 41 0.0 0.0 0.00 0.00 0.00 94 1020.7
20260507223314 40 0.0 0.0 0.00 0.00 0.00 94 1020.5
20260507222308 41 0.0 0.0 0.00 0.00 0.00 93 1020.6
20260507221300 41 0.0 0.0 0.00 0.00 0.00 94 1020.6
20260507220252 41 0.0 0.0 0.00 0.00 0.00 93 1020.8
20260507215247 42 0.0 0.0 0.00 0.00 0.00 93 1020.7
20260507214245 42 0.0 0.0 0.00 0.00 0.00 93 1020.8
20260507213246 43 0.0 0.0 0.00 0.00 0.00 92 1020.8
20260507212243 43 0.0 0.0 0.00 0.00 0.00 92 1020.5
20260507211240 44 0.0 0.0 0.00 0.00 0.00 92 1020.6
20260507210237 43 0.0 0.0 0.00 0.00 0.00 91 1020.5
20260507205255 44 0.0 0.0 0.00 0.00 0.00 91 1020.4
20260507204233 45 0.0 0.0 0.00 0.00 0.00 91 1020.4
20260507203222 46 0.0 0.0 0.00 0.00 0.00 91 1020.5
20260507202220 47 0.0 0.0 0.00 0.00 0.00 90 1020.3
20260507201233 47 0.0 0.0 0.00 0.00 0.00 89 1020.1
20260507200204 48 0.0 0.0 0.00 0.00 0.00 89 1020.2
20260507195157 48 116 0.0 0.9 0.00 0.00 0.00 88 1020.0
20260507194140 49 0.0 0.0 0.00 0.00 0.00 86 1019.9
20260507193158 50 145 0.9 1.7 0.00 0.00 0.00 85 1020.0
20260507192158 50 154 0.0 0.9 0.00 0.00 0.00 84 1020.0
20260507191134 51 164 0.9 1.7 0.00 0.00 0.00 83 1019.8
20260507190133 51 134 0.9 1.7 0.00 0.00 0.00 82 1019.9
20260507185125 52 0.0 0.0 0.00 0.00 0.00 81 1020.0
20260507184116 52 69 1.7 1.7 0.00 0.00 0.00 80 1019.8
20260507183109 52 123 1.7 2.6 0.00 0.00 0.00 80 1019.7
20260507182039 52 136 0.9 0.9 0.00 0.00 0.00 79 1019.9
20260507181036 53 141 0.0 0.9 0.00 0.00 0.00 78 1019.6
20260507180029 53 147 3.5 3.5 0.00 0.00 0.00 77 1019.7
20260507175021 53 124 0.9 0.9 0.00 0.00 0.00 76 1019.8
20260507174013 53 165 1.7 2.6 0.00 0.00 0.00 75 1019.4
20260507172500 54 85 0.9 0.9 0.00 0.00 0.00 75 1019.4
20260507171452 54 254 3.5 5.2 0.00 0.00 0.00 73 1019.4
20260507170442 55 131 3.5 3.5 0.00 0.00 0.00 72 1019.5
20260507165438 54 175 3.5 6.1 0.00 0.00 0.00 73 1019.7
20260507164436 55 191 1.7 2.6 0.00 0.00 0.00 73 1019.7
20260507163434 55 96 1.7 3.5 0.00 0.00 0.00 72 1019.7
20260507162329 55 142 0.9 2.6 0.00 0.00 0.00 71 1019.6
20260507161316 55 141 0.9 1.7 0.00 0.00 0.00 72 1019.6
20260507160308 55 168 1.7 1.7 0.00 0.00 0.00 72 1019.6
20260507155301 55 113 0.9 1.7 0.00 0.00 0.00 72 1019.7
20260507154307 55 123 1.7 1.7 0.00 0.00 0.00 71 1019.6
20260507153246 55 0.0 0.0 0.00 0.00 0.00 71 1019.5
20260507152233 54 103 1.7 2.6 0.00 0.00 0.00 71 1019.7
20260507151228 54 95 1.7 3.5 0.00 0.00 0.00 72 1019.6
20260507150220 55 126 0.9 1.7 0.00 0.00 0.00 70 1019.6
20260507145212 56 96 0.9 0.9 0.00 0.00 0.00 68 1019.6
20260507144227 56 119 0.0 0.9 0.00 0.00 0.00 69 1019.6
20260507143157 57 132 0.9 0.9 0.00 0.00 0.00 66 1019.7
20260507142201 57 116 2.6 3.5 0.00 0.00 0.00 66 1019.9
20260507141138 59 145 0.9 0.9 0.00 0.00 0.00 63 1019.8
20260507140136 61 120 1.7 2.6 0.00 0.00 0.00 62 1019.7
20260507135134 58 170 1.7 3.5 0.00 0.00 0.00 66 1019.7
20260507134133 57 162 1.7 2.6 0.00 0.00 0.00 67 1019.8
20260507133124 56 0.0 0.0 0.00 0.00 0.00 70 1020.0
20260507132116 55 144 2.6 3.5 0.00 0.00 0.00 69 1019.8
20260507131129 56 22 0.9 0.9 0.00 0.00 0.00 71 1019.8
20260507125042 55 0.0 0.0 0.00 0.00 0.00 73 1020.0
20260507124039 55 136 0.9 0.9 0.00 0.00 0.00 73 1020.0
20260507123038 54 125 1.7 1.7 0.00 0.00 0.00 73 1020.0
20260507122035 54 0.0 0.0 0.00 0.00 0.00 71 1019.9
20260507121033 55 116 0.0 0.9 0.00 0.00 0.00 71 1019.9
20260507120048 55 110 0.0 0.9 0.00 0.00 0.00 69 1020.0
20260507115020 55 0.0 0.0 0.00 0.00 0.00 69 1020.1
20260507114012 56 134 0.0 0.9 0.00 0.00 0.00 69 1020.0
20260507112501 55 0.0 0.0 0.00 0.00 0.00 69 1020.1
20260507111442 56 0.0 0.0 0.00 0.00 0.00 69 1020.2
20260507110440 56 171 0.9 0.9 0.00 0.00 0.00 69 1020.3
20260507105438 56 74 1.7 1.7 0.00 0.00 0.00 67 1020.3
20260507104438 56 141 0.9 0.9 0.00 0.00 0.00 69 1020.1
20260507103433 57 0.0 0.0 0.00 0.00 0.00 67 1020.1
20260507102428 58 113 0.9 0.9 0.00 0.00 0.00 66 1020.4
20260507101440 57 0.0 0.0 0.00 0.00 0.00 68 1020.3
20260507100412 59 333 0.0 0.9 0.00 0.00 0.00 63 1020.2
20260507095405 59 142 0.0 0.9 0.00 0.00 0.00 66 1020.2
20260507094356 58 117 0.9 0.9 0.00 0.00 0.00 66 1020.0
20260507093340 59 0.0 0.0 0.00 0.00 0.00 66 1020.1
20260507092338 58 0.0 0.0 0.00 0.00 0.00 68 1020.2
20260507091336 56 0.0 0.0 0.00 0.00 0.00 70 1020.3
20260507090335 56 0.0 0.0 0.00 0.00 0.00 70 1020.3
20260507085333 56 357 0.9 0.9 0.00 0.00 0.00 71 1020.1
20260507084324 57 182 0.9 0.9 0.00 0.00 0.00 69 1020.1
20260507083336 57 0.0 0.0 0.00 0.00 0.00 71 1019.9
20260507082308 55 152 0.0 0.9 0.00 0.00 0.00 71 1020.0
20260507081300 53 0.0 0.0 0.00 0.00 0.00 77 1020.1
20260507080252 52 146 1.7 2.6 0.00 0.00 0.00 78 1020.0
20260507075241 52 182 1.7 1.7 0.00 0.00 0.00 77 1020.0
20260507074233 52 156 0.9 1.7 0.00 0.00 0.00 79 1020.0
20260507073223 51 350 0.0 0.9 0.00 0.00 0.00 80 1020.0
20260507072221 51 133 0.9 0.9 0.00 0.00 0.00 81 1019.9
20260507071213 50 0.0 0.0 0.00 0.00 0.00 83 1019.9
20260507070205 50 119 0.0 0.9 0.00 0.00 0.00 83 1019.8
20260507065156 49 139 0.0 0.9 0.00 0.00 0.00 84 1019.6
20260507064140 49 0.0 0.0 0.00 0.00 0.00 85 1019.7
20260507063158 48 0.0 0.0 0.00 0.00 0.00 85 1019.6
20260507062136 48 0.0 0.0 0.00 0.00 0.00 87 1019.7
20260507061154 47 0.0 0.0 0.00 0.00 0.00 88 1019.9
20260507060132 47 0.0 0.0 0.00 0.00 0.00 91 1019.6
20260507055121 46 0.0 0.0 0.00 0.00 0.00 92 1019.6
20260507054116 45 8 0.0 0.9 0.00 0.00 0.00 94 1019.5
20260507053108 44 0.0 0.0 0.00 0.00 0.00 94 1019.3
20260507052120 44 0.0 0.0 0.00 0.00 0.00 94 1019.4
20260507051053 44 0.0 0.0 0.00 0.00 0.00 94 1019.3
20260507050045 43 0.0 0.0 0.00 0.00 0.00 94 1019.3
20260507045043 43 0.0 0.0 0.00 0.00 0.00 94 1019.2
20260507044040 43 0.0 0.0 0.00 0.00 0.00 94 1019.3
20260507043038 43 0.0 0.0 0.00 0.00 0.00 93 1019.2
20260507042116 42 0.0 0.0 0.00 0.00 0.00 93 1019.3
20260507041035 42 0.0 0.0 0.00 0.00 0.00 93 1019.2
20260507040033 43 0.0 0.0 0.00 0.00 0.00 93 1018.9
20260507035040 43 0.0 0.0 0.00 0.00 0.00 92 1018.9
20260507034013 44 0.0 0.0 0.00 0.00 0.00 92 1018.9
20260507032501 44 0.0 0.0 0.00 0.00 0.00 92 1019.1
20260507031532 44 0.0 0.0 0.00 0.00 0.00 92 1019.1
20260507030444 44 0.0 0.0 0.00 0.00 0.00 92 1019.1
20260507025437 44 0.0 0.0 0.00 0.00 0.00 92 1019.0
20260507024455 44 0.0 0.0 0.00 0.00 0.00 92 1019.1
20260507023454 44 0.0 0.0 0.00 0.00 0.00 92 1018.9
20260507022428 44 0.0 0.0 0.00 0.00 0.00 92 1019.0
20260507021420 44 0.0 0.0 0.00 0.00 0.00 92 1019.1